| time (UTC) | temp C | wind direction | speed KPH | gust KPH | rain 1hr cm | rain 24hr cm | rain mn cm | humidity % | barometer mb |
| 20260509024545 | 18 | 157 | 1.6 | 1.6 | 0.00 | 0.00 | 0.00 | 59 | 1014.5 |
| 20260509021540 | 17 | 149 | 0.0 | 4.8 | 0.00 | 0.00 | 0.00 | 63 | 1014.4 |
| 20260509020041 | 18 | 326 | 1.6 | 8.0 | 0.00 | 0.00 | 0.00 | 58 | 1014.2 |
| 20260509014539 | 18 | 157 | 0.0 | 4.8 | 0.00 | 0.00 | 0.00 | 56 | 1014.6 |
| 20260509013036 | 18 | 161 | 1.6 | 3.2 | 0.00 | 0.00 | 0.00 | 60 | 1014.7 |
| 20260509010034 | 18 | 161 | 0.0 | 3.2 | 0.00 | 0.00 | 0.00 | 63 | 1015.3 |
| 20260509004533 | 18 | 151 | 1.6 | 4.8 | 0.00 | 0.00 | 0.00 | 63 | 1015.6 |
| 20260509003038 | 17 | 178 | 0.0 | 3.2 | 0.00 | 0.00 | 0.00 | 67 | 1015.7 |
| 20260508234537 | 18 | 203 | 0.0 | 3.2 | 0.00 | 0.00 | 0.00 | 68 | 1016.1 |
| 20260508233035 | 17 | 171 | 0.0 | 3.2 | 0.00 | 0.00 | 0.00 | 73 | 1016.2 |
| 20260508230037 | 18 | 154 | 0.0 | 3.2 | 0.00 | 0.00 | 0.00 | 67 | 1016.3 |
| 20260508224550 | 18 | 234 | 0.0 | 1.6 | 0.00 | 0.00 | 0.00 | 66 | 1016.6 |
| 20260508221539 | 19 | 155 | 3.2 | 4.8 | 0.00 | 0.00 | 0.00 | 65 | 1016.5 |
| 20260508220059 | 19 | 293 | 0.0 | 4.8 | 0.00 | 0.00 | 0.00 | 62 | 1016.9 |
| 20260508214533 | 20 | 309 | 3.2 | 4.8 | 0.00 | 0.00 | 0.00 | 59 | 1016.8 |
| 20260508213035 | 20 | 214 | 1.6 | 3.2 | 0.00 | 0.00 | 0.00 | 56 | 1016.7 |
| 20260508210216 | 20 | 247 | 0.0 | 3.2 | 0.00 | 0.00 | 0.00 | 57 | 1016.7 |
| 20260508203422 | 20 | 250 | 3.2 | 6.4 | 0.00 | 0.00 | 0.00 | 55 | 1016.8 |
| 20260508200421 | 20 | 228 | 1.6 | 3.2 | 0.00 | 0.00 | 0.00 | 49 | 1016.1 |
| 20260508194923 | 20 | 259 | 1.6 | 9.7 | 0.00 | 0.00 | 0.00 | 47 | 1016.3 |
| 20260508193420 | 20 | 300 | 1.6 | 16.1 | 0.00 | 0.00 | 0.00 | 46 | 1015.9 |
| 20260508190430 | 21 | 230 | 3.2 | 11.3 | 0.00 | 0.00 | 0.00 | 42 | 1015.8 |
| 20260508184927 | 21 | 234 | 6.4 | 17.7 | 0.00 | 0.00 | 0.00 | 42 | 1015.4 |
| 20260508183422 | 21 | 168 | 3.2 | 20.9 | 0.00 | 0.00 | 0.00 | 43 | 1015.2 |
| 20260508174926 | 21 | 238 | 6.4 | 19.3 | 0.00 | 0.00 | 0.00 | 43 | 1014.7 |
| 20260508171917 | 21 | 209 | 3.2 | 11.3 | 0.00 | 0.00 | 0.00 | 46 | 1014.4 |
| 20260508170415 | 21 | 193 | 3.2 | 11.3 | 0.00 | 0.00 | 0.00 | 47 | 1014.5 |
| 20260508164914 | 21 | 276 | 3.2 | 11.3 | 0.00 | 0.00 | 0.00 | 47 | 1014.2 |
| 20260508161916 | 21 | 162 | 3.2 | 16.1 | 0.00 | 0.00 | 0.00 | 46 | 1014.2 |
| 20260508160415 | 21 | 172 | 4.8 | 14.5 | 0.00 | 0.00 | 0.00 | 46 | 1014.2 |
| 20260508153413 | 21 | 217 | 3.2 | 9.7 | 0.00 | 0.00 | 0.00 | 46 | 1014.3 |
| 20260508151913 | 22 | 188 | 3.2 | 17.7 | 0.00 | 0.00 | 0.00 | 46 | 1014.2 |
| 20260508150413 | 22 | 140 | 3.2 | 20.9 | 0.00 | 0.00 | 0.00 | 46 | 1014.2 |
| 20260508143413 | 22 | 221 | 4.8 | 17.7 | 0.00 | 0.00 | 0.00 | 46 | 1014.0 |
| 20260508141919 | 22 | 226 | 3.2 | 22.5 | 0.00 | 0.00 | 0.00 | 47 | 1014.3 |
| 20260508134914 | 22 | 223 | 4.8 | 20.9 | 0.00 | 0.00 | 0.00 | 51 | 1014.5 |
| 20260508131913 | 22 | 106 | 4.8 | 14.5 | 0.00 | 0.00 | 0.00 | 48 | 1014.9 |
| 20260508130406 | 22 | 220 | 4.8 | 17.7 | 0.00 | 0.00 | 0.00 | 50 | 1015.1 |
| 20260508123420 | 22 | 275 | 6.4 | 19.3 | 0.00 | 0.00 | 0.00 | 45 | 1015.4 |
| 20260508121910 | 22 | 149 | 9.7 | 20.9 | 0.00 | 0.00 | 0.00 | 43 | 1016.0 |
| 20260508120412 | 22 | 237 | 8.0 | 22.5 | 0.00 | 0.00 | 0.00 | 42 | 1016.1 |
| 20260508113411 | 22 | 255 | 3.2 | 16.1 | 0.00 | 0.00 | 0.00 | 44 | 1016.0 |
| 20260508111910 | 21 | 128 | 4.8 | 17.7 | 0.00 | 0.00 | 0.00 | 45 | 1016.2 |
| 20260508110420 | 21 | 186 | 3.2 | 8.0 | 0.00 | 0.00 | 0.00 | 45 | 1016.6 |
| 20260508104909 | 21 | 224 | 3.2 | 11.3 | 0.00 | 0.00 | 0.00 | 46 | 1016.8 |
| 20260508101912 | 21 | 200 | 3.2 | 8.0 | 0.00 | 0.00 | 0.00 | 47 | 1017.1 |
| 20260508100408 | 21 | 217 | 3.2 | 9.7 | 0.00 | 0.00 | 0.00 | 48 | 1017.3 |
| 20260508094909 | 21 | 197 | 0.0 | 6.4 | 0.00 | 0.00 | 0.00 | 48 | 1018.0 |
| 20260508091915 | 21 | 152 | 3.2 | 14.5 | 0.00 | 0.00 | 0.00 | 51 | 1018.1 |
| 20260508090409 | 21 | 231 | 3.2 | 11.3 | 0.00 | 0.00 | 0.00 | 52 | 1018.2 |
| 20260508084908 | 20 | 197 | 3.2 | 11.3 | 0.00 | 0.00 | 0.00 | 52 | 1018.2 |
| 20260508083414 | 20 | 142 | 1.6 | 14.5 | 0.00 | 0.00 | 0.00 | 50 | 1018.4 |
| 20260508081915 | 20 | 258 | 1.6 | 11.3 | 0.00 | 0.00 | 0.00 | 49 | 1018.2 |
| 20260508080405 | 21 | 233 | 3.2 | 14.5 | 0.00 | 0.00 | 0.00 | 46 | 1018.3 |
| 20260508074903 | 20 | 238 | 1.6 | 9.7 | 0.00 | 0.00 | 0.00 | 45 | 1018.5 |
| 20260508073403 | 20 | 182 | 1.6 | 11.3 | 0.00 | 0.00 | 0.00 | 46 | 1018.5 |
| 20260508071907 | 19 | 237 | 3.2 | 11.3 | 0.00 | 0.00 | 0.00 | 46 | 1018.8 |
| 20260508070408 | 19 | 216 | 1.6 | 9.7 | 0.00 | 0.00 | 0.00 | 46 | 1019.1 |
| 20260508064902 | 20 | 255 | 3.2 | 8.0 | 0.00 | 0.00 | 0.00 | 43 | 1019.1 |
| 20260508063404 | 19 | 217 | 1.6 | 6.4 | 0.00 | 0.00 | 0.00 | 39 | 1018.8 |
| 20260508061905 | 20 | 219 | 3.2 | 6.4 | 0.00 | 0.00 | 0.00 | 38 | 1018.7 |
| 20260508060408 | 20 | 204 | 1.6 | 8.0 | 0.00 | 0.00 | 0.00 | 37 | 1018.3 |
| 20260508054905 | 20 | 252 | 0.0 | 3.2 | 0.00 | 0.00 | 0.00 | 40 | 1017.5 |
| 20260508053403 | 19 | 262 | 0.0 | 0.0 | 0.00 | 0.00 | 0.00 | 43 | 1017.2 |
| 20260508051903 | 19 | 271 | 0.0 | 0.0 | 0.00 | 0.00 | 0.00 | 45 | 1016.8 |
| 20260508050402 | 18 | 190 | 0.0 | 0.0 | 0.00 | 0.00 | 0.00 | 49 | 1016.6 |
| 20260508044855 | 18 | 190 | 0.0 | 3.2 | 0.00 | 0.00 | 0.00 | 47 | 1016.7 |
| 20260508043356 | 18 | 182 | 0.0 | 3.2 | 0.00 | 0.00 | 0.00 | 51 | 1016.8 |
| 20260508041857 | 18 | 120 | 0.0 | 3.2 | 0.00 | 0.00 | 0.00 | 53 | 1016.3 |
| 20260508040408 | 18 | 333 | 0.0 | 3.2 | 0.00 | 0.00 | 0.00 | 51 | 1016.1 |
| 20260508034902 | 18 | 0 | 0.0 | 0.0 | 0.00 | 0.00 | 0.00 | 52 | 1015.7 |
| 20260508033400 | 18 | 0 | 0.0 | 0.0 | 0.00 | 0.00 | 0.00 | 53 | 1015.7 |
| 20260508031901 | 18 | 0 | 0.0 | 3.2 | 0.00 | 0.00 | 0.00 | 52 | 1015.7 |
| 20260508030359 | 18 | 54 | 0.0 | 4.8 | 0.00 | 0.00 | 0.00 | 55 | 1015.7 |